Location: Central Falls
(41.8900°N, 71.3929°W)
Time: 14:34:51
(UTC+00:00)

Vanguard 1 - Pass Details

Date: 03 December 2023
Orbit: 653 x 3826 km, 34.3° (Epoch: 24 February)

Event Time Altitude Azimuth Distance (km) Brightness Sun altitude
Rises 03:13:45 0° 275° (W) 7,293 14.8 -63.8°
Reaches altitude 10° 03:18:18 10° 273° (W) 6,528 14.4 -64.5°
Enters shadow 03:29:52 40° 258° (WSW) 4,857 13.4 -65.9°
Maximum altitude 03:40:35 62° 200° (SSW) 4,080 - -67.1°
Drops below altitude 10° 04:00:14 10° 126° (SE) 5,851 - -68.9°
Sets 04:04:04 0° 123° (ESE) 6,536 - -69.1°
